Location: Glenbow
(51.1592°N, 114.3828°W)
Time: 21:18:19
(UTC+00:00)

Envisat - Pass Details

Date: 30 November 2021
Orbit: 764 x 766 km, 98.2° (Epoch: 26 January)

Event Time Altitude Azimuth Distance (km) Brightness Sun altitude
Rises 12:59:29 0° 13° (NNE) 3,248 6.3 -20.9°
Reaches altitude 10° 13:01:48 10° 13° (NNE) 2,317 5.5 -20.5°
Maximum altitude 13:06:55 81° 287° (WNW) 782 2.9 -19.7°
Drops below altitude 10° 13:11:59 10° 200° (SSW) 2,299 5.4 -19.0°
Sets 13:14:17 0° 200° (SSW) 3,221 6.2 -18.6°
